EN

Hourly Weather Brodshchyna

Today, 7 May, Friday

Time Temperature Precipitation Wind Pressure Humidity
00:00 +8°C° 0 mm 2 mps 754 mmHg 93%
01:00 +8°C° 0 mm 2 mps 754 mmHg 93%
02:00 +7°C° 0 mm 2 mps 754 mmHg 94%
03:00 +7°C° 0 mm 2 mps 754 mmHg 93%
04:00 +8°C° 0 mm 1 mps 755 mmHg 92%
05:00 +8°C° 0 mm 1 mps 755 mmHg 92%
06:00 +10°C° 0 mm 1 mps 755 mmHg 84%
07:00 +12°C° 0 mm 1 mps 755 mmHg 75%
08:00 +13°C° 0 mm 1 mps 756 mmHg 67%
09:00 +15°C° 0 mm 2 mps 756 mmHg 58%
10:00 +16°C° 0 mm 2 mps 755 mmHg 50%
11:00 +17°C° 0 mm 2 mps 755 mmHg 42%
12:00 +18°C° 0 mm 3 mps 755 mmHg 41%
13:00 +18°C° 0 mm 3 mps 755 mmHg 40%
14:00 +19°C° 0 mm 4 mps 754 mmHg 39%
15:00 +19°C° 0 mm 4 mps 754 mmHg 43%
16:00 +19°C° 0 mm 4 mps 753 mmHg 46%
17:00 +18°C° 0 mm 4 mps 753 mmHg 49%
18:00 +16°C° 0 mm 5 mps 753 mmHg 51%
19:00 +15°C° 0 mm 5 mps 753 mmHg 52%
20:00 +14°C° 0 mm 5 mps 752 mmHg 54%
21:00 +14°C° 0 mm 5 mps 752 mmHg 55%
22:00 +14°C° 0 mm 6 mps 752 mmHg 56%
23:00 +14°C° 0 mm 7 mps 751 mmHg 57%

Tomorrow, 8 May, Saturday

Time Temperature Precipitation Wind Pressure Humidity
00:00 +14°C° 0 mm 7 mps 751 mmHg 64%
01:00 +14°C° 0 mm 7 mps 751 mmHg 71%
02:00 +12°C° 0 mm 7 mps 750 mmHg 77%
03:00 +12°C° 0.1 mm 7 mps 750 mmHg 79%
04:00 +12°C° 0.1 mm 8 mps 750 mmHg 80%
05:00 +12°C° 0.1 mm 8 mps 749 mmHg 81%
06:00 +12°C° 0.3 mm 7 mps 749 mmHg 84%
07:00 +12°C° 0.3 mm 7 mps 750 mmHg 86%
08:00 +12°C° 0.3 mm 7 mps 750 mmHg 88%
09:00 +11°C° 1.5 mm 6 mps 750 mmHg 89%
10:00 +11°C° 1.5 mm 6 mps 751 mmHg 89%
11:00 +10°C° 1.5 mm 5 mps 751 mmHg 90%
12:00 +12°C° 0.2 mm 5 mps 752 mmHg 82%
13:00 +11°C° 0.2 mm 6 mps 752 mmHg 75%
14:00 +13°C° 0.2 mm 6 mps 753 mmHg 67%
15:00 +13°C° 0 mm 6 mps 753 mmHg 65%
16:00 +11°C° 0 mm 6 mps 753 mmHg 62%
17:00 +11°C° 0 mm 6 mps 754 mmHg 60%
18:00 +10°C° 0 mm 5 mps 754 mmHg 63%
19:00 +10°C° 0 mm 4 mps 755 mmHg 66%
20:00 +9°C° 0 mm 3 mps 755 mmHg 69%
21:00 +9°C° 0 mm 3 mps 756 mmHg 70%
22:00 +8°C° 0 mm 3 mps 756 mmHg 72%
23:00 +8°C° 0 mm 3 mps 756 mmHg 73%

Day after tomorrow, 9 May, Sunday

Time Temperature Precipitation Wind Pressure Humidity
00:00 +7°C° 0 mm 3 mps 757 mmHg 74%
01:00 +5°C° 0 mm 4 mps 757 mmHg 75%
02:00 +5°C° 0 mm 4 mps 757 mmHg 76%
03:00 +4°C° 0 mm 4 mps 758 mmHg 78%
04:00 +4°C° 0 mm 4 mps 758 mmHg 79%
05:00 +3°C° 0 mm 4 mps 758 mmHg 81%
06:00 +5°C° 0 mm 4 mps 759 mmHg 74%
07:00 +7°C° 0 mm 5 mps 759 mmHg 66%
08:00 +9°C° 0 mm 6 mps 760 mmHg 59%
09:00 +10°C° 0 mm 6 mps 760 mmHg 55%
10:00 +11°C° 0 mm 6 mps 760 mmHg 50%
11:00 +12°C° 0 mm 7 mps 760 mmHg 46%
12:00 +14°C° 0 mm 7 mps 760 mmHg 44%
13:00 +14°C° 0 mm 7 mps 760 mmHg 42%
14:00 +15°C° 0 mm 7 mps 760 mmHg 40%
15:00 +14°C° 0 mm 7 mps 761 mmHg 43%
16:00 +14°C° 0 mm 6 mps 761 mmHg 46%
17:00 +14°C° 0 mm 6 mps 761 mmHg 49%
18:00 +12°C° 0 mm 5 mps 762 mmHg 54%
19:00 +10°C° 0 mm 4 mps 763 mmHg 59%
20:00 +8°C° 0 mm 3 mps 763 mmHg 64%
21:00 +8°C° 0 mm 3 mps 764 mmHg 65%
22:00 +7°C° 0 mm 3 mps 764 mmHg 66%
23:00 +7°C° 0 mm 3 mps 764 mmHg 67%

10 May, Monday

Time Temperature Precipitation Wind Pressure Humidity
00:00 +5°C° 0 mm 3 mps 764 mmHg 68%
01:00 +5°C° 0 mm 3 mps 764 mmHg 70%
02:00 +4°C° 0 mm 3 mps 765 mmHg 71%
03:00 +4°C° 0 mm 3 mps 765 mmHg 72%
04:00 +4°C° 0 mm 3 mps 765 mmHg 73%
05:00 +4°C° 0 mm 3 mps 765 mmHg 74%
06:00 +7°C° 0 mm 3 mps 766 mmHg 66%
07:00 +10°C° 0 mm 3 mps 766 mmHg 59%
08:00 +12°C° 0 mm 4 mps 766 mmHg 51%
09:00 +13°C° 0 mm 4 mps 766 mmHg 47%
10:00 +14°C° 0 mm 4 mps 765 mmHg 42%
11:00 +15°C° 0 mm 5 mps 765 mmHg 38%
12:00 +15°C° 0 mm 5 mps 765 mmHg 38%
13:00 +16°C° 0 mm 5 mps 764 mmHg 37%
14:00 +16°C° 0 mm 6 mps 764 mmHg 37%
15:00 +16°C° 0 mm 5 mps 764 mmHg 41%
16:00 +16°C° 0 mm 5 mps 764 mmHg 45%
17:00 +15°C° 0 mm 5 mps 764 mmHg 49%
18:00 +14°C° 0 mm 5 mps 764 mmHg 55%
19:00 +12°C° 0 mm 4 mps 764 mmHg 61%
20:00 +10°C° 0 mm 3 mps 764 mmHg 68%
21:00 +9°C° 0 mm 3 mps 764 mmHg 70%
22:00 +8°C° 0 mm 4 mps 764 mmHg 72%
23:00 +7°C° 0 mm 4 mps 763 mmHg 74%

11 May, Tuesday

Time Temperature Precipitation Wind Pressure Humidity
00:00 +7°C° 0 mm 4 mps 763 mmHg 76%
01:00 +6°C° 0 mm 4 mps 763 mmHg 77%
02:00 +6°C° 0 mm 4 mps 763 mmHg 78%
03:00 +6°C° 0 mm 4 mps 763 mmHg 76%
04:00 +6°C° 0 mm 5 mps 762 mmHg 75%
05:00 +7°C° 0 mm 5 mps 762 mmHg 74%
06:00 +8°C° 0 mm 5 mps 762 mmHg 70%
07:00 +9°C° 0 mm 5 mps 762 mmHg 67%
08:00 +10°C° 0 mm 6 mps 762 mmHg 63%
09:00 +13°C° 0 mm 6 mps 761 mmHg 62%
10:00 +15°C° 0 mm 6 mps 761 mmHg 61%
11:00 +16°C° 0 mm 6 mps 761 mmHg 60%
12:00 +16°C° 0 mm 6 mps 760 mmHg 62%
13:00 +16°C° 0 mm 6 mps 760 mmHg 64%
14:00 +16°C° 0 mm 6 mps 760 mmHg 66%
15:00 +16°C° 0 mm 6 mps 759 mmHg 68%
16:00 +16°C° 0 mm 6 mps 759 mmHg 70%
17:00 +16°C° 0 mm 5 mps 759 mmHg 72%
18:00 +15°C° 0 mm 5 mps 759 mmHg 75%
19:00 +14°C° 0 mm 4 mps 758 mmHg 78%
20:00 +13°C° 0 mm 3 mps 758 mmHg 80%
21:00 +13°C° 0.5 mm 4 mps 757 mmHg 81%
22:00 +13°C° 0.5 mm 6 mps 756 mmHg 82%
23:00 +12°C° 0.5 mm 7 mps 755 mmHg 84%

12 May, Wednesday

Time Temperature Precipitation Wind Pressure Humidity
00:00 +11°C° 0.2 mm 7 mps 756 mmHg 85%
01:00 +10°C° 0.2 mm 6 mps 756 mmHg 86%
02:00 +8°C° 0.2 mm 6 mps 756 mmHg 87%
03:00 +8°C° 0 mm 6 mps 756 mmHg 86%
04:00 +8°C° 0 mm 7 mps 756 mmHg 85%
05:00 +8°C° 0 mm 7 mps 756 mmHg 85%
06:00 +7°C° 0.3 mm 8 mps 756 mmHg 85%
07:00 +9°C° 0.3 mm 8 mps 756 mmHg 85%
08:00 +8°C° 0.3 mm 9 mps 756 mmHg 85%
09:00 +9°C° 0.1 mm 8 mps 756 mmHg 81%
10:00 +10°C° 0.1 mm 8 mps 756 mmHg 78%
11:00 +11°C° 0.1 mm 7 mps 756 mmHg 74%
12:00 +12°C° 0.2 mm 8 mps 756 mmHg 72%
13:00 +13°C° 0.2 mm 8 mps 756 mmHg 70%
14:00 +15°C° 0.2 mm 9 mps 756 mmHg 67%
15:00 +15°C° 0.2 mm 8 mps 755 mmHg 70%
16:00 +14°C° 0.2 mm 7 mps 755 mmHg 72%
17:00 +14°C° 0.2 mm 7 mps 755 mmHg 75%
18:00 +13°C° 0.1 mm 6 mps 755 mmHg 78%
19:00 +12°C° 0.1 mm 5 mps 755 mmHg 81%
20:00 +12°C° 0.1 mm 5 mps 754 mmHg 83%
21:00 +10°C° 0.2 mm 5 mps 754 mmHg 85%
22:00 +10°C° 0.2 mm 5 mps 754 mmHg 87%
23:00 +11°C° 0.2 mm 4 mps 753 mmHg 89%
Show more

We Need Your Consent

Meteoprog and our Service Providers may store and access personal data such as cookies, device identifiers or other similar technologies on your device and process such data to personalise content and ads, as well as provide social media features and to analyse the traffic.

  • Store and/or access information on your device

    Cookies, device identifiers or other information can be stored or accessed on your device for the purposes indicated above.

  • Personalised ads and content, ad and content measurement, audience insights, and products development

    Ads and content can be personalised based on a profile. More data can be added to better personalise ads and content. Ad and content performance can be measured. Insights about the audience who saw the ads and content can be derived. Such data can be used to develop or improve user’s experience, systems and software.

By clicking ‘I Agree’ you will allow the use of indicated cookies, device identifiers, web beacons or other similar technologies. Your settings can be changed in the browser on your device.

For certain purposes, legitimate interests may be relied on, rather than consent. You can read more about this in our Privacy and Cookie Policy.